Regional Weather Roundup
Issued by NWS Nashville, TN

Home | Current Version | Previous Version | Text Only | Print | Product List | Glossary On
Versions: 1 2 3 4 5 6 7 8 9 10 11 12 13 14 15 16 17 18 19 20 21 22 23 24 25 26 27 28 29 30 31 32 33 34 35 36 37 38 39 40 41 42 43 44 45 46 47 48 49 50
000
ASUS44 KOHX 222210
RWROHX
MIDDLE TENNESSEE HOURLY WEATHER ROUNDUP
NATIONAL WEATHER SERVICE NASHVILLE TN
500 PM CDT FRI MAY 22 2015

NOTE: "FAIR" INDICATES FEW OR NO CLOUDS BELOW 12,000 FEET WITH
NO SIGNIFICANT WEATHER AND/OR OBSTRUCTIONS TO VISIBILITY.

* THESE REPORTS ARE NOT UNDER NWS QUALITY CONTROL AND MAY NOT
  REPORT WEATHER SUCH AS PRECIPITATION AND FOG.


TNZ005>011-023>034-057-059-062>066-078-080-222300
...NORTHERN MIDDLE TENNESSEE...

CITY           SKY/WX    TMP DP  RH WIND       PRES   REMARKS
CASTALIAN SPRG   N/A     73  43  33 NE2       30.24F
CLARKSVILLE    MOSUNNY   72  45  37 SE3       30.25F
CROSSVILLE     SUNNY     70  40  33 VRB3      30.27S
FAIRFIELD GLAD   N/A     66  45  45 CALM      30.26S
GLADEVILLE*      N/A     72  45  37 CALM      30.22F
JOELTON*         N/A     75  52  43 NE1       30.21S
KINGSTON SPGS*   N/A     79  54  41 CALM      30.21F
LIVINGSTON     SUNNY     71  42  35 NE7       30.27S
MONTEREY         N/A     70  48  46 CALM      30.23R
MOUNT JULIET*    N/A     73  48  40 CALM      30.11F
NASHVILLE      MOSUNNY   74  42  31 E3        30.26S
ROCKWOOD       SUNNY     69  40  34 NE6       30.25F
SMYRNA         SUNNY     75  43  31 N6        30.26S
SPARTA         SUNNY     72  43  35 VRB3      30.26R
$$
TNZ056-058-060-061-075>077-079-093>097-222300
...SOUTHERN MIDDLE TENNESSEE...

CITY           SKY/WX    TMP DP  RH WIND       PRES   REMARKS
COLUMBIA       SUNNY     75  45  33 E8        30.23F
LEWISBURG      SUNNY     74  40  29 E6        30.24F
MANCHESTER*      N/A     72  48  43 N3        30.28F
MCMINNVILLE    SUNNY     72  45  37 N8        30.26S
MOUNT PLEASANT   N/A     72  48  43 CALM      30.19F
SHELBYVILLE    SUNNY     73  46  38 N8        30.26S
TULLAHOMA      SUNNY     72  37  28 NE6       30.26S
WINCHESTER     SUNNY     73  48  40 N9        30.24S
$$


...KEY TO REMARKS...
VSB - VISIBILITY IN MILES
WCI - WIND CHILL INDEX
HX  - HEAT INDEX



USA.gov is the U.S. government's official web portal to all federal, state and local government web resources and services.